Simultaneous Nadir Overpasses (SNOs) Predictions

Prediction of SNOs between LANDSAT-8 and METOP-B Satellite Orbit:

Table of predicted SNOs for the next 14.0 days since TLE Epoch: 8/12/2023
Index Date (LANDSAT-8) Time (LANDSAT-8) Lat,Lon (LANDSAT-8) SZA (LANDSAT-8 ) Date (METOP-B) Time (METOP-B) Lat,Lon (METOP-B) SZA (METOP-B ) Distance(km) Time Diff (sec)
1 08/14/2023 02:28:25 81.21,-175.67 68.87 08/14/2023 02:27:44 81.22,-175.52 68.87 2.62 41
2 08/14/2023 03:17:51 -81.23, -7.69 111.08 08/14/2023 03:18:24 -81.23, -7.87 111.08 3.05 33
3 08/16/2023 22:02:42 81.21,-109.29 69.75 08/16/2023 22:02:04 81.22,-109.16 69.75 2.43 38
4 08/16/2023 22:52:08 -81.23, 58.71 110.19 08/16/2023 22:52:43 -81.24, 58.90 110.15 3.25 35
5 08/19/2023 17:36:59 81.22, -42.61 70.71 08/19/2023 17:36:24 81.22, -42.48 70.71 2.26 35
6 08/19/2023 18:26:25 -81.24, 125.41 109.23 08/19/2023 18:27:03 -81.24, 125.60 109.20 3.11 38
7 08/22/2023 13:11:17 81.21, 23.63 71.62 08/22/2023 13:10:45 81.22, 23.75 71.63 2.27 32
8 08/22/2023 14:00:43 -81.23,-168.33 108.31 08/22/2023 14:01:24 -81.24,-168.15 108.27 3.00 41
9 08/25/2023 08:45:33 81.22, 90.17 72.61 08/25/2023 08:45:04 81.22, 90.30 72.62 2.29 29



Historial Predications of SNOs between LANDSAT-8 and METOP-B
